Simultaneous Nadir Overpasses (SNOs) Predictions

Prediction of SNOs between GOES-17 and NOAA-19 Satellite Orbit:

Table of predicted SNOs for the next 14.0 days since TLE Epoch: 8/2/2019
Index Date Time (GOES-17) GOES-17 Lat,Lon NOAA-19 Lat,Lon Distance(km) Time Diff (sec)
1 08/03/2019 02:23:50 0.04,-137.20 -0.55,-139.60 274.67 80
2 08/04/2019 02:09:32 0.04,-137.20 0.15,-136.77 49.54 80
3 08/05/2019 01:57:54 0.04,-137.20 0.78,-133.92 373.67 80
4 08/07/2019 14:21:42 -0.04,-137.20 0.35,-138.92 197.01 80
5 08/08/2019 14:07:23 -0.05,-137.19 -0.29,-136.08 126.75 80
6 08/09/2019 13:55:45 -0.05,-137.19 -0.94,-133.24 450.33 80
7 08/11/2019 02:31:10 0.05,-137.16 -0.87,-141.08 446.94 80
8 08/12/2019 02:19:33 0.06,-137.15 -0.17,-138.24 123.87 80
9 08/13/2019 02:05:14 0.06,-137.14 0.47,-135.40 199.16 80
10 08/15/2019 14:29:00 -0.06,-137.12 0.70,-140.39 373.59 80
11 08/16/2019 14:17:22 -0.07,-137.10 0.05,-137.54 50.76 80




NCC Satellite Simultaneous Nadir Overpasses (SNOs) Prediction Service
